CZ-6A DEB, 54290

Orbit data source: Space-Track

CZ-6A DEB, 54290 is space debris in SSO originally from a launch on Fri, 11 Nov 2022 UTC launched from the Taiyaun Space Center, China (TSC). Debris objects in space refer to the collection of defunct objects orbiting the Earth. Examples of debris include non-operational satellites, rocket bodies, and fragments generated from explosions, collisions, or faulty payload assembly.

Loading next visibility...
Identifier
54290, 2022-151AH
Orbit
SSO
Country
Flag of CNCN / PRC
Related business
Manufacturer
SAST
Mission
Spacecraft
Bus & Motor
Unknown
Mass
Unknown
Launch date (UTC)
2022-11-11 (4 years ago)
Launch vehicle
Unknown
Launch site
Taiyaun Space Center, China (TSC)
Object type
Payload
Rocket body
Debris
Shape & HBR
Unknown shape, 0.1 m
Radar Cross Section
Medium (>0.1 m² and <1 m²)

Expand to show TLE details & history
Last TLE update: 2 days ago

TLE from 2 days ago
0 CZ-6A DEB
1 54290U 22151AH  26171.00378328  .00000393  00000-0  14986-3 0  9995
2 54290  98.5741 178.4043 0125179  46.8821 314.2753 14.31956862187610
Epoch: 2026-06-20T00:05Z
TLE epoch observation values (Epoch: 2026-06-20T00:05:26.875Z)
Latitude
0.00007°
Longitude
-91.18233°
Altitude
726.104 km
Speed
7.525 km/s
True Right ascension
11h 53m 37s
True Declination
0° 00' 00"
Sunlit
Object was in daylight at epoch
Visualization orbit readout
Latitude
Unknown
Longitude
Unknown
Altitude
Unknown
Speed
Unknown
Apparent Right ascension
Unknown
Apparent Declination
Unknown
Sunlit
N/A
Visualization observer readout
Local Sidereal Time
21:29:28
Azimuth
Unknown
Elevation
Unknown
Doppler factor
Unknown
Orbital elements
Apogee altitude
871.967 km
Perigee altitude
692.699 km
Semi-major axis
7,160.47 km
Eccentricity
0.01252
Inclination
98.5741°
RAAN
178.4043°
Arg. of periapsis
46.8821°
True anomaly
313.23696°
Mean anomaly
314.2753°
Eccentric anomaly
313.75727°
Mean motion
3.58204 °/min
Orbital period
100.5 mins
BSTAR
0.00014986
Loading maneuver chart data...
Computing Atmospheric mass density...
Loading historical data...
Loading historical data...
Loading historical data...
Loading historical data...
Loading historical data...
Loading historical data...
Loading historical data...

Documentation

Showing up to 5 results
|